Terminal Aerodrome Forecast
Issued by NWS Raleigh/Durham, NC

Home | Current Version | Previous Version | Text Only | Print | Product List | Glossary On
Versions: 1 2 3 4 5 6 7 8 9 10 11 12 13 14 15 16 17 18 19 20 21 22 23 24 25 26 27 28 29 30 31 32 33 34 35 36 37 38 39 40 41 42 43 44 45 46 47 48 49 50
000
FTUS42 KRAH 171735
TAFRDU
TAF
KRDU 171735Z 1718/1818 07006KT P6SM SCT025 BKN060
      TEMPO 1718/1721 BKN025
     FM172100 05006KT P6SM BKN035
     FM180600 06005KT 5SM BR SCT008 BKN040
      TEMPO 1808/1812 2SM -DZ BR BKN008 BKN040=

USA.gov is the U.S. government's official web portal to all federal, state and local government web resources and services.